Weather History for CYMX - December, 2012

Change the Weather History Date:

Wednesday, December 26, 2012

  Actual Average Record
Temperature  
Mean Temperature 5 °F -  
Max Temperature 14 °F 23 °F 39 °F (2014)
Min Temperature -2 °F 8 °F -9 °F (2000)
Degree Days  
Heating Degree Days 60    
Moisture  
Dew Point 1 °F    
Average Humidity 81    
Maximum Humidity 85    
Minimum Humidity 73    
Precipitation  
Precipitation 0.00 in - - ()
Sea Level Pressure  
Sea Level Pressure 30.36 in    
Wind  
Wind Speed 3 mph ()    
Max Wind Speed 13 mph    
Max Gust Speed 22 mph    
Averages and records for this station are not official NWS values.
T = Trace of Precipitation, MM = Missing Value Source: Averaged Metar Reports

Daily Weather History Graph

Daily Weather History Graph

Search for Another Location

Airport or City:

Trip Planner

Search our weather history database for the weather conditions in past years. The results will help you decide how hot, cold, wet, or windy it might be!

Date:

Astronomy

Dec. 26, 2012 Rise Set
Actual Time 7:36 AM EST 4:18 PM EST
Civil Twilight 7:01 AM EST 4:52 PM EST
Nautical Twilight 6:23 AM EST 5:30 PM EST
Astronomical Twilight 5:47 AM EST 6:06 PM EST
Moon 3:10 PM EST 5:55 AM EST
Length of Visible Light 9h 50m
Length of Day
8h 42m
Waxing Gibbous, 97% of the Moon is Illuminated
Dec 26
Waxing Gibbous
Dec 28
Full
Jan 4
Last Quarter
Jan 11
New
Jan 18
First Quarter

Hourly Weather History & Observations

Time (EST) Temp. Windchill Dew Point Humidity Pressure Visibility Wind Dir Wind Speed Gust Speed Precip Events Conditions
12:00 AM 5.0 °F - 1.4 °F 85% 30.38 in 25.0 mi Calm Calm - N/A   Clear
1:00 AM 3.2 °F - -0.4 °F 85% 30.38 in 25.0 mi Calm Calm - N/A   Clear
2:00 AM -0.4 °F - -4.0 °F 85% 30.40 in 25.0 mi Calm Calm - N/A   Clear
3:00 AM -0.4 °F - -4.0 °F 85% 30.41 in 25.0 mi Calm Calm - N/A   Clear
4:00 AM -2.2 °F -10.4 °F -5.8 °F 85% 30.43 in 25.0 mi South 3.5 mph - N/A   Clear
5:00 AM -0.4 °F - -4.0 °F 85% 30.41 in 25.0 mi Calm Calm - N/A   Partly Cloudy
6:00 AM -0.4 °F -8.3 °F -4.0 °F 85% 30.40 in 25.0 mi NE 3.5 mph - N/A   Partly Cloudy
7:00 AM -0.4 °F -10.4 °F -4.0 °F 85% 30.40 in 25.0 mi NE 4.6 mph - N/A   Partly Cloudy
8:00 AM 1.4 °F -6.2 °F -4.0 °F 78% 30.43 in 25.0 mi NE 3.5 mph - N/A   Mostly Cloudy
9:00 AM 1.4 °F - -2.2 °F 85% 30.43 in 45.0 mi NE 2.3 mph - N/A   Partly Cloudy
9:15 AM 3.2 °F -6.2 °F -2.2 °F 78% 30.43 in 45.0 mi NE 4.6 mph - N/A   Partly Cloudy
9:53 AM 3.2 °F -7.8 °F -0.4 °F 85% 30.44 in 25.0 mi NE 5.8 mph - N/A   Mostly Cloudy
10:00 AM 5.0 °F -4.1 °F 1.4 °F 85% 30.45 in 25.0 mi NE 4.6 mph - N/A   Scattered Clouds
11:00 AM 6.8 °F -2.0 °F 3.2 °F 85% 30.42 in 25.0 mi NNE 4.6 mph - N/A   Partly Cloudy
12:00 PM 8.6 °F 0.1 °F 3.2 °F 79% 30.38 in 25.0 mi NNE 4.6 mph - N/A   Partly Cloudy
1:00 PM 8.6 °F -1.3 °F 3.2 °F 79% 30.37 in 25.0 mi ENE 5.8 mph - N/A   Scattered Clouds
2:00 PM 10.4 °F 0.8 °F 3.2 °F 73% 30.36 in 25.0 mi NE 5.8 mph - N/A   Mostly Cloudy
3:00 PM 8.6 °F 2.0 °F 3.2 °F 79% 30.36 in 25.0 mi NE 3.5 mph - N/A   Overcast
4:00 PM 8.6 °F 2.0 °F 1.4 °F 73% 30.33 in 25.0 mi NE 3.5 mph - N/A   Overcast
5:00 PM 8.6 °F 0.1 °F 1.4 °F 73% 30.32 in 25.0 mi NE 4.6 mph - N/A   Overcast
6:00 PM 8.6 °F 0.1 °F 3.2 °F 79% 30.33 in 25.0 mi NE 4.6 mph - N/A   Overcast
7:00 PM 8.6 °F -2.6 °F 3.2 °F 79% 30.29 in 25.0 mi NE 6.9 mph - N/A   Overcast
8:00 PM 10.4 °F -1.5 °F 5.0 °F 79% 30.24 in 25.0 mi NE 8.1 mph - N/A   Overcast
9:00 PM 12.2 °F -0.2 °F 6.8 °F 79% 30.22 in 25.0 mi NE 9.2 mph - N/A   Overcast
10:00 PM 12.2 °F -2.5 °F 6.8 °F 79% 30.18 in 25.0 mi NE 12.7 mph 21.9 mph N/A   Overcast
11:00 PM 14.0 °F -0.2 °F 6.8 °F 73% 30.16 in 25.0 mi NE 12.7 mph 21.9 mph N/A   Overcast